This demonstration page uses our WeatherBlox Daily Observations layout. Learn more.

Hourly Observations for November 25, 2016

Temp ( °F °C ) Dew Point ( °F °C ) Humidity (%) Winds ( mph kmh ) Pressure ( in mb ) Visibility ( mi km ) Precip ( " mm )
12:54 am 00:54 Cloudy 40 4.4 32 0 73 73 NNW 15 24 30.37 1029 10 16.0934 0 0
1:54 am 01:54 Cloudy 40 4.4 32 0 73 73 NNW 8 13 30.38 1029 10 16.0934 0 0
2:32 am 02:32 Cloudy 40 4.4 33 0.6 77 77 NW 6 9 30.39 1029 10 16.0934 0 0
2:54 am 02:54 Cloudy 39 3.9 33 0.6 79 79 WNW 9 15 30.4 1030 10 16.0934 0 0
3:42 am 03:42 Partly Cloudy 37 3 30 -1 75 75 W 5 7 30.42 1030 10 16.0934 0 0
3:54 am 03:54 Clear 36 2.2 31 -0.6 82 82 WNW 6 9 30.41 1030 10 16.0934 0 0
4:54 am 04:54 Clear 33 0.6 30 -1.1 89 89 W 5 7 30.42 1030 10 16.0934 0 0
5:54 am 05:54 Clear 30 -1.1 28 -2.2 92 92 Calm 30.42 1030 10 16.0934 0 0
6:54 am 06:54 Clear 28 -2.2 26 -3.3 92 92 Calm 30.43 1030 10 16.0934 0 0
7:54 am 07:54 Sunny 30 -1.1 28 -2.2 92 92 WSW 3 6 30.44 1031 10 16.0934 0 0
8:54 am 08:54 Sunny 33 0.6 29 -1.7 85 85 SW 5 7 30.45 1031 10 16.0934 0 0
9:54 am 09:54 Sunny 38 3.3 31 -0.6 76 76 SW 3 6 30.45 1031 10 16.0934 0 0
10:54 am 10:54 Sunny 44 6.7 33 0.6 65 65 SSW 5 7 30.45 1031 10 16.0934 0 0
11:54 am 11:54 Sunny 50 10 34 1.1 54 54 SW 3 6 30.42 1030 10 16.0934 0 0
12:54 pm 12:54 Sunny 53 11.7 32 0 45 45 SW 12 19 30.38 1029 10 16.0934 0 0
1:54 pm 13:54 Sunny 54 12.2 33 0.6 45 45 SW 10 17 30.36 1028 10 16.0934 0 0
2:54 pm 14:54 Sunny 54 12.2 33 0.6 45 45 SW 12 19 30.35 1028 10 16.0934 0 0
3:54 pm 15:54 Sunny 54 12.2 34 1.1 47 47 SW 9 15 30.35 1028 10 16.0934 0 0
4:54 pm 16:54 Sunny 46 7.8 34 1.1 63 63 S 7 11 30.35 1028 10 16.0934 0 0
5:54 pm 17:54 Clear 39 3.9 33 0.6 79 79 S 9 15 30.36 1028 10 16.0934 0 0
6:54 pm 18:54 Clear 39 3.9 33 0.6 79 79 S 7 11 30.36 1028 10 16.0934 0 0
7:54 pm 19:54 Clear 34 1.1 30 -1.1 85 85 S 9 15 30.35 1028 10 16.0934 0 0
8:54 pm 20:54 Clear 39 3.9 32 0 76 76 SSE 6 9 30.34 1027 10 16.0934 0 0
9:54 pm 21:54 Clear 34 1.1 29 -1.7 82 82 S 7 11 30.33 1027 10 16.0934 0 0
10:54 pm 22:54 Clear 37 2.8 31 -0.6 79 79 SSE 7 11 30.31 1026 10 16.0934 0 0
11:54 pm 23:54 Clear 36 2.2 30 -1.1 79 79 S 5 7 30.29 1026 10 16.0934 0 0

Powered by AerisWeather